Regional Weather Roundup
Issued by NWS

Home | Current Version | Previous Version | Text Only | Print | Product List | Glossary On
Versions: 1 2 3 4 5 6 7 8 9 10 11 12 13 14 15 16 17 18 19 20 21 22 23 24 25 26 27 28 29 30 31 32 33 34 35 36 37 38 39 40 41 42 43 44 45 46 47 48 49 50
000
ASUS43 KIND 210809
RWRIN

WEATHER ROUNDUP FOR INDIANA
NATIONAL WEATHER SERVICE INDIANAPOLIS IN
400 AM EDT SUN SEP 21 2014

NOTE: "FAIR" INDICATES FEW OR NO CLOUDS BELOW 12,000 FEET WITH NO
SIGNIFICANT WEATHER AND/OR OBSTRUCTIONS TO VISIBILITY.

* - STATION DOES NOT REPORT WEATHER SUCH AS PRECIPITATION OR FOG.

+ - STATION NOT QUALITY CONTROLLED BY THE NATIONAL WEATHER SERVICE.
    USE DATA WITH CAUTION...ESPECIALLY DEWPOINT AND RELATIVE
    HUMIDITY OBSERVATIONS.

INZ001>003-010>013-019-020-210900-
NORTHWEST INDIANA

CITY           SKY/WX    TMP DP  RH WIND       PRES   REMARKS
GARY /AIRPORT/ MOCLDY    67  60  77 W17       29.75R
KNOX *+        MOCLDY    68  65  89 W9        29.72F
LA PORTE +     MOCLDY    62  59  91 W10       29.74R
MICHIGAN CITY+ CLOUDY    64  61  88 W13G22    29.72R
MONTICELLO +   MOCLDY    68  67  98 W10       29.76S
RENSSELAER +   PTCLDY    68  68 100 SW9       29.76S FOG
VALPARAISO     MOCLDY    63  61  93 W9        29.74S

$$

LMZ046-743>745-210900-
SOUTHERN LAKE MICHIGAN

STATION/POSITION TIME  TEMP WIND        PRES
                       AIR  DIR/SP/G
                 (UTC) (F)  (DEG/KT/KT) (MB)
MICHIGAN CITY    0800   67  230/ 25/ 30   N/A

$$

INZ004-005-014>016-021>024-210900-
NORTH CENTRAL INDIANA

CITY           SKY/WX    TMP DP  RH WIND       PRES   REMARKS
GOSHEN         LGT RAIN N/A N/A N/A SW16G29   29.71F
LOGANSPORT +   CLOUDY    68  64  88 SW10      29.78R
PERU/GRISSOM   CLOUDY    69  69 100 W18G24    29.76F
ROCHESTER +    CLOUDY    70  70 100 SW14      29.75S
SOUTH BEND     MOCLDY    66  61  84 W15       29.70S
WARSAW +       CLOUDY    68  68 100 W16G22    29.73S

$$

INZ006>009-017-018-025>027-210900-
NORTHEAST INDIANA

CITY           SKY/WX    TMP DP  RH WIND       PRES   REMARKS
ANGOLA *+      CLOUDY    66  59  77 SW12      29.69F
AUBURN +       MOCLDY    68  64  88 SW6       29.73S
FORT WAYNE     CLOUDY    68  66  93 SW15      29.75F
HUNTINGTON +   CLOUDY    67  67  97 SW8       29.75F

$$

INZ028-029-035-036-043>045-051>053-210900-
WEST CENTRAL INDIANA

CITY           SKY/WX    TMP DP  RH WIND       PRES   REMARKS
GREENCASTLE +  CLOUDY    68  66  94 CALM      29.84S
LAFAYETTE      PTCLDY    67  67 100 W8        29.79S
TERRE HAUTE    CLOUDY    70  67  90 SW9       29.84S

$$

INZ030>032-037>040-046>048-054>057-064-065-210900-
CENTRAL INDIANA

CITY           SKY/WX    TMP DP  RH WIND       PRES   REMARKS
CP ATTERBURY + CLOUDY    72  64  78 SW9       29.84F
FRANKFORT +    CLEAR    N/A N/A N/A SW8       29.81F
INDIANAPOLIS   CLOUDY    70  66  87 SW16      29.82F
-EAGLE CREEK   MOCLDY    70  66  87 SW8       29.81F
KOKOMO *+      CLOUDY    70  66  88 W14       29.78S
MARION +       CLOUDY    68  67  98 W12G17    29.79S
MT COMFORT *+  CLOUDY    70  70 100 SW9       29.82F
SHELBYVILLE    CLOUDY    74  66  76 SW12      29.82F
ZIONSVILLE +   MOCLDY    70  65  85 SW13      29.81F

$$

INZ033-034-041-042-049-050-058-059-210900-
EAST CENTRAL INDIANA

CITY           SKY/WX    TMP DP  RH WIND       PRES   REMARKS
MUNCIE         MOCLDY    70  66  87 SW9       29.79F

$$

INZ060-061-067>069-081>083-085>088-210900-
SOUTHWEST INDIANA

CITY           SKY/WX    TMP DP  RH WIND       PRES   REMARKS
EVANSVILLE     MOCLDY    71  66  84 SW8       29.90F
WASHINGTON +   CLOUDY    72  68  88 SW8       29.86F THUNDER

$$

INZ062-063-066-070>080-084-089>092-210900-
SOUTH CENTRAL AND SOUTHEAST INDIANA

CITY           SKY/WX    TMP DP  RH WIND       PRES   REMARKS
BEDFORD +      MOCLDY    72  64  78 SW7       29.87
BLOOMINGTON    MOCLDY    71  66  84 SW10      29.85F
NORTH VERNON + CLOUDY    72  66  83 S10       29.88

$$



USA.gov is the U.S. government's official web portal to all federal, state and local government web resources and services.